Weather History for KTDF - October, 2012

Change the Weather History Date:

Monday, October 29, 2012

  Actual Average Record
Temperature  
Mean Temperature 44 °F -  
Max Temperature 50 °F 68 °F 83 °F (1984)
Min Temperature 39 °F 41 °F 24 °F (2001)
Degree Days  
Heating Degree Days 20    
Moisture  
Dew Point 42 °F    
Average Humidity 95    
Maximum Humidity 100    
Minimum Humidity 81    
Precipitation  
Precipitation 0.37 in - - ()
Sea Level Pressure  
Sea Level Pressure 29.50 in    
Wind  
Wind Speed 10 mph (WNW)    
Max Wind Speed 16 mph    
Max Gust Speed 31 mph    
Visibility 9 miles    
Events Rain    
Averages and records for this station are not official NWS values.
T = Trace of Precipitation, MM = Missing Value Source: NWS Daily Summary

Daily Weather History Graph

Daily Weather History Graph

Search for Another Location

Airport or City:

Trip Planner

Search our weather history database for the weather conditions in past years. The results will help you decide how hot, cold, wet, or windy it might be!

Date:

Astronomy

Oct. 29, 2012 Rise Set
Actual Time 7:36 AM EDT 6:22 PM EDT
Civil Twilight 7:09 AM EDT 6:48 PM EDT
Nautical Twilight 6:39 AM EDT 7:19 PM EDT
Astronomical Twilight 6:09 AM EDT 7:48 PM EDT
Moon 6:14 PM EDT (10/29) 7:24 AM EDT (10/29)
Length of Visible Light 11h 38m
Length of Day
10h 45m
Full, 100% of the Moon is Illuminated
Oct 29
Full
Oct 29
Full
Nov 6
Last Quarter
Nov 13
New
Nov 20
First Quarter

Hourly Weather History & Observations

Time (EDT) Temp. Windchill Dew Point Humidity Pressure Visibility Wind Dir Wind Speed Gust Speed Precip Events Conditions
12:15 AM 50.0 °F - 50.0 °F 100% 29.62 in 7.0 mi NW 8.1 mph - N/A   Drizzle
12:35 AM 48.2 °F - 48.2 °F 100% 29.62 in 7.0 mi NW 9.2 mph 17.3 mph 0.01 in Rain Light Rain
12:55 AM 48.2 °F - 48.2 °F 100% 29.62 in 7.0 mi NW 9.2 mph 16.1 mph 0.01 in Rain Light Rain
1:15 AM 46.4 °F 41.5 °F 46.4 °F 100% 29.61 in 7.0 mi NW 10.4 mph 19.6 mph 0.01 in Rain Light Rain
1:35 AM 46.4 °F 42.4 °F 46.4 °F 100% 29.61 in 7.0 mi NW 8.1 mph 16.1 mph 0.01 in Rain Light Rain
1:55 AM 46.4 °F 41.9 °F 46.4 °F 100% 29.60 in 7.0 mi NW 9.2 mph - 0.02 in Rain Light Rain
2:15 AM 46.4 °F 41.1 °F 46.4 °F 100% 29.60 in 7.0 mi NNW 11.5 mph 18.4 mph 0.01 in Rain Light Rain
2:35 AM 46.4 °F 41.9 °F 46.4 °F 100% 29.59 in 7.0 mi NW 9.2 mph 17.3 mph 0.01 in Rain Light Rain
2:55 AM 46.4 °F 41.9 °F 46.4 °F 100% 29.59 in 7.0 mi NNW 9.2 mph - 0.02 in Rain Light Rain
3:15 AM 44.6 °F 39.7 °F 44.6 °F 100% 29.59 in 7.0 mi NNW 9.2 mph 18.4 mph 0.01 in Rain Light Rain
3:35 AM 44.6 °F 40.2 °F 44.6 °F 100% 29.59 in 7.0 mi NW 8.1 mph 17.3 mph 0.03 in Rain Light Rain
3:55 AM 44.6 °F 38.8 °F 44.6 °F 100% 29.59 in 7.0 mi NW 11.5 mph 17.3 mph 0.05 in Rain Heavy Rain
4:15 AM 44.6 °F 39.7 °F 44.6 °F 100% 29.58 in 10.0 mi NW 9.2 mph - 0.01 in Rain Rain
4:35 AM 44.6 °F 38.4 °F 44.6 °F 100% 29.58 in 10.0 mi NW 12.7 mph 19.6 mph 0.02 in Rain Light Rain
4:55 AM 44.6 °F 38.8 °F 44.6 °F 100% 29.58 in 10.0 mi NW 11.5 mph 18.4 mph 0.03 in Rain Rain
5:15 AM 44.6 °F 39.2 °F 44.6 °F 100% 29.57 in 10.0 mi NW 10.4 mph 20.7 mph 0.02 in Rain Rain
5:35 AM 44.6 °F 39.7 °F 44.6 °F 100% 29.57 in 7.0 mi NW 9.2 mph 19.6 mph 0.05 in Rain Rain
5:55 AM 42.8 °F 38.0 °F 42.8 °F 100% 29.57 in 7.0 mi NW 8.1 mph 19.6 mph 0.07 in Rain Rain
6:15 AM 42.8 °F 37.5 °F 42.8 °F 100% 29.58 in 7.0 mi NW 9.2 mph 24.2 mph 0.03 in Rain Light Rain
6:35 AM 42.8 °F 38.6 °F 42.8 °F 100% 29.57 in 10.0 mi NNW 6.9 mph 19.6 mph N/A Rain Light Rain
6:55 AM 42.8 °F 37.5 °F 42.8 °F 100% 29.57 in 10.0 mi NW 9.2 mph 18.4 mph N/A Rain Light Rain
7:15 AM 42.8 °F 36.2 °F 42.8 °F 100% 29.56 in 10.0 mi NW 12.7 mph 18.4 mph 0.01 in Rain Light Rain
7:35 AM 42.8 °F 37.5 °F 42.8 °F 100% 29.56 in 10.0 mi WNW 9.2 mph 18.4 mph 0.01 in Rain Rain
7:55 AM 42.8 °F 38.6 °F 42.8 °F 100% 29.56 in 10.0 mi NW 6.9 mph 18.4 mph 0.01 in   Drizzle
8:15 AM 42.8 °F 37.0 °F 42.8 °F 100% 29.56 in 10.0 mi NW 10.4 mph 16.1 mph N/A Rain Rain
8:35 AM 42.8 °F 37.5 °F 42.8 °F 100% 29.57 in 10.0 mi NW 9.2 mph 19.6 mph N/A   Light Drizzle
8:55 AM 42.8 °F 37.5 °F 42.8 °F 100% 29.56 in 10.0 mi NW 9.2 mph 20.7 mph N/A   Light Drizzle
9:15 AM 42.8 °F 39.3 °F 41.0 °F 93% 29.56 in 10.0 mi NW 5.8 mph 23.0 mph 0.01 in   Overcast
9:35 AM 42.8 °F 37.0 °F 41.0 °F 93% 29.55 in 10.0 mi WNW 10.4 mph 23.0 mph 0.01 in   Overcast
9:55 AM 42.8 °F 36.6 °F 41.0 °F 93% 29.54 in 10.0 mi NW 11.5 mph 17.3 mph 0.01 in Rain Light Rain
10:15 AM 42.8 °F 38.6 °F 41.0 °F 93% 29.53 in 10.0 mi NW 6.9 mph 19.6 mph N/A   Overcast
10:35 AM 42.8 °F 38.0 °F 41.0 °F 93% 29.53 in 10.0 mi NW 8.1 mph 17.3 mph N/A   Light Drizzle
10:55 AM 42.8 °F 37.0 °F 41.0 °F 93% 29.52 in 10.0 mi NW 10.4 mph 19.6 mph N/A Rain Light Rain
11:35 AM 42.8 °F 37.5 °F 41.0 °F 93% 29.52 in 10.0 mi NW 9.2 mph 19.6 mph N/A Rain Light Rain
11:55 AM 42.8 °F 38.6 °F 41.0 °F 93% 29.51 in 10.0 mi NW 6.9 mph 17.3 mph N/A Rain Light Rain
12:15 PM 42.8 °F 38.0 °F 42.8 °F 100% 29.51 in 10.0 mi NW 8.1 mph - N/A   Drizzle
12:35 PM 42.8 °F 38.0 °F 41.0 °F 93% 29.50 in 10.0 mi NW 8.1 mph 18.4 mph N/A   Drizzle
12:55 PM 44.6 °F 39.2 °F 41.0 °F 87% 29.49 in 10.0 mi WNW 10.4 mph 19.6 mph N/A Rain Rain
1:15 PM 44.6 °F 41.4 °F 41.0 °F 87% 29.49 in 10.0 mi NW 5.8 mph 18.4 mph N/A   Light Drizzle
1:35 PM 44.6 °F 41.4 °F 41.0 °F 87% 29.48 in 10.0 mi NW 5.8 mph 16.1 mph N/A Rain Light Rain
1:55 PM 42.8 °F 38.6 °F 41.0 °F 93% 29.47 in 10.0 mi WNW 6.9 mph 20.7 mph 0.01 in Rain Light Rain
2:15 PM 42.8 °F 36.6 °F 41.0 °F 93% 29.46 in 10.0 mi WNW 11.5 mph 21.9 mph N/A Rain Light Rain
2:35 PM 42.8 °F 38.0 °F 41.0 °F 93% 29.45 in 10.0 mi WNW 8.1 mph 20.7 mph N/A   Overcast
2:55 PM 42.8 °F 37.0 °F 39.2 °F 87% 29.44 in 10.0 mi West 10.4 mph 18.4 mph N/A   Light Drizzle
3:15 PM 42.8 °F 37.0 °F 39.2 °F 87% 29.42 in 10.0 mi West 10.4 mph 21.9 mph N/A Rain Light Rain
3:35 PM 42.8 °F 36.6 °F 41.0 °F 93% 29.41 in 10.0 mi WNW 11.5 mph 21.9 mph N/A Rain Light Rain
3:55 PM 42.8 °F 38.0 °F 41.0 °F 93% 29.40 in 10.0 mi West 8.1 mph 23.0 mph 0.01 in Rain Light Rain
4:15 PM 42.8 °F 37.0 °F 39.2 °F 87% 29.40 in 10.0 mi West 10.4 mph 20.7 mph N/A   Drizzle
4:35 PM 42.8 °F 35.4 °F 37.4 °F 81% 29.39 in 10.0 mi West 15.0 mph 28.8 mph N/A Rain Rain
4:55 PM 42.8 °F 36.2 °F 37.4 °F 81% 29.39 in 10.0 mi West 12.7 mph 21.9 mph N/A Rain Light Rain
5:15 PM 42.8 °F 36.6 °F 37.4 °F 81% 29.39 in 10.0 mi West 11.5 mph 17.3 mph N/A Rain Light Rain
5:35 PM 41.0 °F 35.2 °F 37.4 °F 87% 29.38 in 10.0 mi West 9.2 mph 18.4 mph N/A Rain Rain
5:55 PM 41.0 °F 33.9 °F 37.4 °F 87% 29.37 in 10.0 mi West 12.7 mph 24.2 mph N/A Rain Light Rain
6:15 PM 41.0 °F 34.3 °F 37.4 °F 87% 29.37 in 10.0 mi West 11.5 mph 27.6 mph 0.01 in Rain Light Rain
6:35 PM 41.0 °F 35.8 °F 37.4 °F 87% 29.36 in 10.0 mi West 8.1 mph 19.6 mph 0.01 in Rain Light Rain
6:55 PM 41.0 °F 35.2 °F 37.4 °F 87% 29.36 in 10.0 mi West 9.2 mph 21.9 mph 0.02 in Rain Light Rain
7:15 PM 41.0 °F 35.8 °F 39.2 °F 93% 29.36 in 10.0 mi West 8.1 mph 17.3 mph 0.01 in Rain Rain
7:35 PM 41.0 °F 34.3 °F 39.2 °F 93% 29.35 in 10.0 mi West 11.5 mph 16.1 mph 0.03 in Rain Light Rain
7:55 PM 39.2 °F 31.6 °F 37.4 °F 93% 29.34 in 10.0 mi West 12.7 mph 24.2 mph 0.04 in Rain Light Rain
8:15 PM 39.2 °F 31.6 °F 37.4 °F 93% 29.34 in 10.0 mi West 12.7 mph 24.2 mph 0.01 in Rain Light Rain
8:35 PM 39.2 °F 30.5 °F 39.2 °F 100% 29.33 in 10.0 mi West 16.1 mph 25.3 mph 0.01 in Rain Light Rain
11:35 PM 39.2 °F 31.2 °F 37.4 °F 93% 29.28 in 10.0 mi West 13.8 mph 31.1 mph 0.02 in Rain Light Rain
11:55 PM 39.2 °F 31.2 °F 37.4 °F 93% 29.27 in 10.0 mi West 13.8 mph 25.3 mph 0.03 in Rain Light Rain